Flag for Hungary Weather past 2 weeks in Szeged, Hungary

Now
37 °F

Overcast.


Feels Like: 32 °F
Forecast: 37 / 51 °F
Wind: 7 mph from Southeast

Location: Szeged

Current Time: Jan 30, 2015 at 12:26:39 AM

Latest Report: Jan 29, 2015 at 11:00 PM


Visibility: 5 mi

Pressure: 29.41 "Hg

Humidity: 85%

Dew point: 33 °F

Location of SzegedLocation

Historic Weather in Szeged — Graph

°F

Szeged temperature yesterday

Maximum temperature yesterday: 37 °F (at 11:00 PM)
Minimum temperature yesterday: 27 °F (at 1:00 AM)
Average temperature yesterday: 33 °F

Past Weeks' High & Low Weather Summary

 TemperatureHumidityPressure
High51 °F (Jan 15, 3:00 PM)97% (Jan 19, 4:00 AM)30.26 "Hg (Jan 19, 4:00 AM)
Low27 °F (Jan 29, 1:00 AM)39% (Jan 15, 3:00 PM)29.41 "Hg (Jan 29, 11:00 PM)
Average39 °F88%29.98 "Hg
* Reported Jan 14 11:00 PM — Jan 29 11:00 PM, Szeged, Weather by CustomWeather, © 2014

Note: Actual official high and low records may vary slightly from our data, if they occured in-between our weather recording intervals... More about our weather records

Advertising

Szeged weather history for previous 24 hours

 ConditionsComfort  
Time TempWeatherWind HumidityBarometerVisibility
11:00 PM
Jan 29
37 °FOvercast.7 mph85%29.41 "Hg5 mi
10:00 PM37 °FOvercast.6 mph83%29.44 "Hg5 mi
9:00 PM36 °FOvercast.5 mph80%29.47 "Hg4 mi
8:00 PM34 °FOvercast.3 mph87%29.50 "Hg4 mi
7:00 PM33 °FFog.1 mph89%29.55 "Hg3 mi
6:00 PM33 °FFog.1 mph87%29.57 "Hg3 mi
5:00 PM34 °FFog.2 mph86%29.58 "Hg3 mi
4:00 PM35 °FFog.5 mph84%29.59 "Hg3 mi
3:00 PM36 °FOvercast.6 mph81%29.61 "Hg4 mi
2:00 PM36 °FOvercast.5 mph79%29.61 "Hg5 mi
1:00 PM36 °FOvercast.6 mph80%29.62 "Hg5 mi
12:00 PM35 °FOvercast.6 mph83%29.65 "Hg5 mi
11:00 AM34 °FOvercast.7 mph85%29.67 "Hg5 mi
10:00 AM33 °FOvercast.6 mph86%29.70 "Hg5 mi
9:00 AM32 °FOvercast.3 mph88%29.72 "Hg4 mi
8:00 AM32 °FOvercast.5 mph89%29.72 "Hg4 mi
7:00 AM32 °FOvercast.7 mph89%29.74 "Hg4 mi
6:00 AM31 °FOvercast.6 mph90%29.77 "Hg4 mi
5:00 AM31 °FOvercast.5 mph92%29.79 "Hg4 mi
4:00 AM28 °FClear.3 mph93%29.82 "Hg4 mi
3:00 AM27 °FFog.3 mph93%29.84 "Hg3 mi
2:00 AM28 °FFog.3 mph91%29.85 "Hg3 mi
1:00 AM27 °FFog.3 mph94%29.87 "Hg1 mi
12:00 AM28 °FFog.2 mph93%29.91 "Hg1 mi
Weather by CustomWeather, © 2014

See weather overviewHow to use our weather pages